Theta_e
360 359 363 359 358 356 355 353 353 348 348 355 355 356 354 353 353 352 352 355 353 355 356 357 359 358 357 358 358 356 356 358 359 359 359 359 359 359 358 360 359 359 359
361 359 359 358 358 358 357 355 354 352 350 356 358 359 357 356 357 356 352 355 356 357 357 358 358 356 357 357 356 356 355 356 356 358 358 358 357 357 358 358 359 360 360
362 363 360 360 361 363 363 358 358 358 352 354 355 359 358 357 355 357 354 353 358 357 357 358 357 357 356 354 354 352 352 351 352 353 354 355 357 358 358 358 358 359 358
365 366 360 361 365 362 361 358 360 354 353 350 354 358 358 356 357 357 355 357 356 357 356 358 358 358 355 354 354 354 353 354 353 355 354 354 354 357 358 359 359 359 358
363 363 359 365 369 364 362 364 358 356 358 356 352 355 357 356 356 353 354 359 356 355 356 361 357 354 354 353 355 355 355 354 355 355 355 355 355 355 358 357 358 359 358
363 364 359 363 365 358 361 364 359 361 356 356 352 350 351 355 356 355 355 355 355 356 355 356 355 354 357 353 354 353 353 351 354 354 355 356 357 358 358 358 358 359 359
362 365 357 359 360 359 360 362 363 359 356 361 351 347 349 349 353 354 356 354 353 355 355 355 354 355 356 356 354 352 349 353 353 354 353 353 354 355 356 357 358 358 358
364 361 360 356 362 355 361 361 362 359 355 358 349 345 337 341 347 352 356 354 355 352 350 352 353 357 357 355 358 351 352 352 354 353 353 353 354 354 355 356 357 357 357
362 363 364 362 364 362 355 362 360 360 350 357 352 348 345 336 342 348 352 352 354 352 352 353 356 358 359 357 357 356 351 352 354 353 353 354 354 354 354 355 355 356 356
363 363 363 364 362 365 361 360 357 360 358 351 351 353 354 350 340 339 347 351 354 354 357 355 353 356 358 356 356 351 351 351 353 353 354 353 353 353 354 354 354 355 354
362 362 364 363 361 361 364 364 361 364 357 353 352 357 357 351 350 345 346 344 351 352 353 352 352 351 355 357 357 352 351 351 352 353 354 353 351 351 353 354 355 354 354
356 363 361 361 362 361 360 361 363 362 361 359 357 355 353 348 346 345 344 345 345 348 351 353 354 355 358 357 353 351 350 350 350 350 351 353 354 353 353 354 355 355 355
351 356 365 361 358 362 361 362 365 359 361 358 360 353 357 353 355 349 346 347 344 347 351 352 362 357 358 359 358 355 348 346 345 344 345 348 351 355 353 354 355 355 355
352 361 363 362 361 362 362 363 358 357 361 356 358 358 353 355 356 353 348 347 355 343 350 349 357 357 359 358 353 349 349 341 340 340 341 342 344 347 350 353 354 353 355
355 362 363 362 359 361 361 363 356 358 360 359 361 364 356 354 354 354 355 352 355 346 339 352 351 360 359 358 353 355 352 338 339 338 338 338 340 340 341 343 347 352 352
358 361 361 360 362 360 363 364 358 361 359 356 355 362 361 355 355 353 352 355 354 349 342 352 356 358 359 358 350 349 345 341 338 336 336 335 336 336 337 337 338 340 348
355 361 360 362 360 360 362 361 361 358 358 358 358 360 360 362 354 352 353 353 353 358 342 349 359 356 359 354 350 347 348 346 340 334 333 332 331 332 332 333 334 335 337
356 356 362 362 361 360 362 361 359 356 357 357 357 358 358 355 361 360 355 357 355 357 360 351 359 351 352 354 353 349 346 342 337 331 330 329 328 327 327 327 327 329 332
356 354 356 359 359 359 358 359 360 359 357 356 357 356 356 357 357 360 357 360 355 352 358 349 362 353 351 352 350 344 340 335 332 330 328 327 327 326 325 325 324 324 325
357 357 357 357 357 357 356 357 358 359 359 357 358 358 358 358 358 359 357 357 356 356 353 362 363 355 348 348 343 336 332 333 328 328 326 325 326 326 325 325 324 323 320
357 359 359 358 358 357 352 357 358 357 358 358 357 359 358 357 351 351 359 362 364 356 349 360 353 359 345 341 339 338 334 330 328 327 323 323 325 326 324 326 324 322 319
358 359 358 357 357 355 341 340 351 357 359 358 357 358 359 353 352 344 343 343 349 358 354 349 364 350 355 344 342 338 331 327 324 327 320 317 321 319 320 321 322 320 319
358 357 358 359 360 360 336 336 341 353 356 359 359 357 355 353 355 360 339 337 338 336 340 357 354 359 356 351 346 340 334 332 334 326 319 313 319 316 319 320 319 318 317
359 359 358 359 359 358 335 332 337 354 357 359 359 358 358 358 358 358 358 355 356 355 354 353 355 357 361 361 353 346 341 324 322 321 321 311 315 314 317 318 318 317 316
357 357 358 358 358 358 330 329 337 352 353 358 361 361 359 358 344 338 357 354 354 352 331 329 330 330 334 340 349 341 328 324 318 317 318 313 312 311 313 315 316 316 314
350 351 352 355 347 356 332 326 334 349 353 354 362 359 337 349 329 329 354 354 352 352 347 345 344 337 341 340 336 346 339 330 321 316 316 311 310 311 308 312 313 316 315
Wind_Speed
3 4 2 3 2 1 4 4 4 1 4 8 7 6 7 8 7 5 3 10 5 5 5 6 6 6 6 6 6 6 7 8 11 11 11 12 12 12 13 13 11 10 8
3 3 4 3 3 2 3 3 4 4 4 5 6 6 7 7 6 6 5 7 6 5 7 6 6 5 6 5 4 3 3 4 5 8 9 11 12 12 13 13 13 12 10
5 4 4 4 3 3 3 4 5 5 5 6 4 3 6 6 7 7 6 6 11 9 7 7 6 5 4 3 3 2 3 3 5 5 5 6 9 12 13 13 13 12 9
5 5 4 3 2 3 3 4 5 5 4 4 3 4 4 5 6 6 6 5 4 5 9 9 7 5 5 4 3 3 4 5 5 7 8 8 8 10 11 11 12 12 11
6 6 4 1 2 2 3 1 4 5 1 3 5 3 3 4 6 7 5 5 5 5 4 12 8 5 6 5 3 3 4 5 6 6 7 8 10 10 10 10 11 11 12
6 5 4 3 4 4 2 2 5 2 4 4 5 5 4 4 4 5 6 6 6 6 6 4 9 10 10 5 2 2 3 5 7 8 9 10 9 10 11 10 11 11 11
6 5 5 4 5 4 3 3 3 4 2 1 3 4 5 5 6 5 5 5 5 7 6 5 5 4 10 11 5 2 2 5 6 6 5 7 8 8 10 10 9 10 11
6 6 4 4 2 5 3 4 4 5 1 1 3 2 6 5 5 6 5 4 5 6 7 8 7 4 5 5 8 5 2 4 6 5 4 5 6 7 9 8 8 9 9
7 6 5 5 2 6 4 2 4 4 4 2 4 5 2 1 6 5 6 5 6 5 6 6 6 6 5 5 5 5 4 4 7 4 4 5 7 6 7 8 9 8 8
7 7 6 5 4 6 3 3 4 4 5 2 3 3 3 6 3 5 5 5 6 4 3 5 5 5 4 7 9 9 5 5 6 6 6 4 6 6 7 8 9 9 8
5 7 5 5 5 3 2 4 3 3 3 5 3 1 1 3 3 3 2 6 5 6 5 5 5 5 6 4 5 9 6 7 8 8 7 4 2 2 5 8 9 10 10
7 8 7 5 5 5 5 5 4 5 5 4 3 4 4 2 3 4 1 5 5 3 5 5 5 3 2 3 8 11 7 7 8 8 9 8 6 5 4 6 8 9 11
6 6 7 7 6 6 4 4 5 4 5 4 5 5 3 4 3 4 5 5 4 5 2 5 4 3 3 3 7 4 8 8 9 10 10 11 11 9 2 2 6 6 8
5 2 6 6 7 6 5 5 6 6 5 4 7 7 5 4 3 3 4 2 2 5 7 4 3 4 4 5 10 5 9 8 9 10 10 11 12 12 11 9 5 1 4
6 6 6 6 6 7 7 5 6 5 5 5 6 6 7 4 4 4 4 5 3 1 4 6 3 3 4 6 8 5 8 8 8 9 10 10 11 13 13 13 12 6 3
8 7 7 7 7 8 7 8 6 5 7 6 7 4 6 5 4 5 5 4 3 3 3 2 2 4 5 7 5 7 8 8 9 9 10 11 12 12 12 12 13 13 9
10 9 9 8 8 8 7 7 8 8 8 8 8 5 7 5 7 5 5 5 5 5 6 4 5 4 5 8 7 6 6 6 7 10 12 12 12 12 11 11 10 10 10
12 12 11 10 9 9 9 9 10 10 11 10 9 10 7 7 7 6 6 5 6 3 4 7 6 5 6 8 8 8 6 6 7 12 14 14 13 13 12 10 8 6 6
13 13 12 12 12 11 10 10 10 10 11 11 9 10 8 9 9 7 7 4 8 7 6 8 5 5 2 5 7 6 7 8 7 11 11 12 14 13 13 11 8 5 1
13 13 13 13 13 12 12 11 11 10 11 11 10 10 9 9 9 8 9 7 8 5 5 4 4 5 4 5 5 4 4 4 5 6 10 9 10 13 13 11 12 9 11
12 13 13 13 14 13 11 13 12 12 11 12 11 10 10 9 4 5 4 6 8 6 7 6 6 5 5 4 7 5 4 6 4 3 6 5 5 6 7 9 14 16 18
13 12 13 14 15 12 12 11 12 12 12 12 11 10 10 8 8 5 6 5 3 7 7 9 5 8 8 7 7 8 6 3 3 5 6 6 5 6 5 6 16 18 19
13 14 14 14 14 13 11 13 14 12 12 12 12 11 10 9 10 10 6 6 3 2 4 6 9 7 6 9 10 9 7 6 3 8 8 4 3 6 5 8 15 17 18
12 13 13 15 14 13 9 11 10 14 11 13 13 14 13 12 10 11 10 10 10 8 6 8 9 8 6 7 11 9 10 8 8 5 5 4 2 4 5 5 14 12 14
10 9 10 11 14 13 9 10 11 13 15 15 12 14 14 13 11 12 12 11 9 7 6 5 8 9 8 5 9 10 7 9 3 3 2 4 3 4 3 4 5 10 11
8 8 10 9 11 13 10 14 13 11 12 10 11 12 12 14 13 15 14 12 11 10 8 7 6 6 6 7 8 7 10 9 6 4 5 4 5 4 4 0 3 5 6
Wind_Direction
191 199 151 220 202 195 169 211 207 80 299 290 277 249 251 231 246 252 220 155 204 225 215 217 218 218 220 233 249 267 272 265 254 243 237 235 240 242 241 237 234 238 232
209 178 198 204 227 202 237 220 234 167 239 250 272 240 233 233 221 239 231 161 172 187 198 216 215 210 223 242 258 269 268 270 285 260 256 250 247 236 239 241 239 234 227
191 281 206 223 223 185 229 232 207 221 210 241 252 231 232 208 210 212 233 253 146 170 191 206 195 205 232 249 248 239 243 260 261 258 244 242 238 235 232 235 237 241 233
236 209 203 213 111 206 204 227 208 209 204 215 232 220 209 198 205 199 227 237 225 156 171 191 193 202 210 224 239 262 264 254 267 249 244 241 238 231 234 234 235 233 228
218 255 224 148 221 215 232 299 262 237 207 254 242 197 201 215 199 199 162 222 172 237 189 157 180 187 207 219 248 295 283 287 281 271 260 253 249 241 237 232 232 228 222
209 223 227 260 251 259 247 132 257 200 273 239 211 179 198 207 203 204 192 218 195 213 206 188 183 190 190 206 233 300 317 306 309 285 269 252 246 241 233 227 225 224 218
212 200 247 214 240 257 292 281 247 222 226 208 205 185 186 196 204 202 203 209 193 210 211 200 233 227 166 175 166 125 331 323 323 292 275 258 252 251 227 216 222 216 215
205 213 253 248 246 283 240 259 277 290 245 258 289 246 185 177 195 205 192 211 181 212 208 204 219 222 292 174 110 151 77 334 322 311 289 255 242 243 232 216 215 213 207
189 210 214 271 269 273 262 235 238 272 289 175 273 310 311 22 164 168 177 196 178 206 192 174 194 201 223 279 159 135 83 5 343 329 315 289 223 228 215 213 208 203 198
192 201 222 223 224 255 319 237 228 290 267 229 202 223 321 339 293 146 179 169 190 229 200 188 160 187 211 243 79 63 67 21 11 5 13 43 193 210 205 192 192 195 199
218 234 218 238 232 263 232 273 257 240 212 300 291 247 228 225 247 327 238 158 180 181 181 224 167 200 175 252 122 103 84 43 30 20 17 68 83 208 205 206 206 202 202
199 213 226 231 241 228 243 233 223 232 273 287 265 259 260 263 177 227 211 168 158 267 186 189 205 205 181 165 90 108 91 65 51 39 31 26 20 198 205 215 217 214 213
224 205 206 225 222 221 233 230 204 229 238 248 253 257 231 234 305 283 290 136 190 177 191 264 202 192 166 223 109 134 92 77 62 47 42 37 32 50 55 252 238 219 213
240 214 244 216 220 224 220 212 218 229 208 235 249 257 272 231 245 272 293 0 198 226 142 257 181 207 175 202 90 163 115 85 76 61 54 48 45 39 34 41 55 159 205
256 235 238 203 221 223 221 213 244 227 238 234 242 224 252 238 243 242 257 276 176 280 221 169 203 205 186 166 130 143 81 94 85 74 60 55 50 47 40 31 25 36 70
246 248 256 246 221 226 221 219 252 230 242 234 232 193 246 265 231 240 249 249 254 182 221 135 150 179 174 107 88 111 119 117 75 66 61 54 50 45 41 34 28 26 21
238 235 235 240 252 239 220 229 225 233 235 245 250 249 249 256 266 219 215 234 241 166 242 132 115 166 173 144 151 126 141 106 83 66 68 64 57 47 39 30 21 16 21
230 235 234 238 236 249 251 241 239 248 216 232 237 243 243 244 223 249 273 253 279 288 201 221 129 165 189 176 172 150 111 96 88 74 72 64 59 53 44 36 22 7 2
232 232 230 234 235 239 246 245 240 234 229 230 241 238 239 234 232 252 250 200 215 230 197 238 168 165 144 157 149 105 114 107 101 103 86 73 59 50 39 25 14 1 42
230 230 230 231 234 236 235 235 230 237 240 236 227 235 239 239 229 218 229 235 259 249 233 252 256 167 165 159 139 141 136 126 110 101 72 61 45 46 44 36 40 62 83
231 231 231 228 230 227 227 222 229 230 234 238 233 227 229 234 264 261 217 231 264 236 245 210 232 189 168 162 182 158 149 138 117 115 87 47 44 45 34 56 65 77 85
232 236 233 233 232 230 211 217 224 221 227 233 234 231 237 187 219 220 227 238 307 225 254 290 210 219 191 183 178 172 141 152 153 158 108 68 62 61 53 62 81 83 85
238 235 237 238 240 237 211 207 210 232 231 225 230 229 235 233 198 209 173 171 174 177 257 276 266 259 235 182 178 165 160 168 142 128 114 78 48 74 66 77 80 85 87
239 239 240 241 248 241 198 208 208 228 239 246 233 228 231 243 209 224 208 212 218 209 222 238 237 256 256 203 183 175 164 106 87 105 116 104 69 71 77 77 81 86 88
247 238 243 244 245 246 175 199 199 232 236 234 238 237 238 227 214 196 219 217 212 197 109 59 55 59 51 59 164 131 142 145 121 142 106 112 149 105 64 73 87 100 96
258 269 262 249 237 247 213 197 211 231 233 241 223 234 222 236 179 184 211 212 215 208 196 163 145 133 160 106 125 183 167 171 128 131 161 105 152 154 128 88 106 127 132